Voltar ao catálogo

ALOS DEB

AtivoSSO
NORAD 36571·DEBRIS·🇯🇵 Japan

Lançado Jan 24, 2006 de Tanegashima Space Center

Loading…

Próximas Passagens (próximas 24 horas)

TLE

AtualizadoSource: Space-Track

Época: Sep 14, 2026, 08:33 UTC

1 36571U 06002AA  26257.35678317  .00002993  00000-0  34958-3 0  9997
2 36571  98.0545 230.9158 0000887  78.4047 281.7267 14.85917598876940

Acompanhe ALOS DEB em tempo real com AllMySat

Download on the App Store